User: anonymous   Login
Location: Scultetus-Sternwarte G�rlitz
(51.1356°N, 14.9514°E)
Time: 07:07:48
(UTC+02:00)
Language:

Iridium 3 - Orbit

View from above orbital plane
View from above orbital plane
View from above satellite
View from above satellite

Ground track
Ground track

The orbit data is extracted from the following two-line orbital elements,

1 25431U 98048A   16270.33230755  .00000211  00000-0  68179-4 0  9997
2 25431  86.4010   6.0167 0002332  99.3835 319.8941 14.34225867947796
Epoch (UTC): 26 September 2016 07:58:31
Eccentricity: 0.0002332
inclination: 86.4010°
perigee height: 776 km
apogee height: 779 km
right ascension of ascending node: 6.0167°
argument of perigee: 99.3835°
revolutions per day: 14.34225867
mean anomaly at epoch: 319.8941°
orbit number at epoch: 94779

The dashed part of the orbit path shows where the satellite is in the earth's shadow,  

DLR